Time,TemperatureF,DewpointF,PressureIn,WindDirection,WindDirectionDegrees,WindSpeedMPH,WindSpeedGustMPH,Humidity,HourlyPrecipIn,Conditions,Clouds,dailyrainin,SolarRadiationWatts/m^2,SoftwareType,DateUTC
2013-08-24 00:02:00,76.3,69.0,30.04,ESE,105,0.0,1.0,78,0.00,SCT,SCT,0.00,0.0,WeatherDisplay:10.37,2013-08-24 05:02:00,
2013-08-24 00:07:00,76.2,68.8,30.04,ESE,123,1.0,6.0,78,0.00,SCT,SCT,0.00,0.0,WeatherDisplay:10.37,2013-08-24 05:07:00,
2013-08-24 00:12:00,76.1,68.7,30.04,SE,127,0.0,2.0,78,0.00,FEW,FEW,0.00,0.0,WeatherDisplay:10.37,2013-08-24 05:12:00,
2013-08-24 00:17:00,76.0,68.6,30.04,South,169,0.0,2.0,78,0.00,FEW,FEW,0.00,0.0,WeatherDisplay:10.37,2013-08-24 05:17:00,
2013-08-24 00:22:00,75.8,68.9,30.04,SSW,207,0.0,2.0,79,0.00,FEW,FEW,0.00,0.0,WeatherDisplay:10.37,2013-08-24 05:22:00,
2013-08-24 00:27:00,75.7,68.7,30.05,East,79,0.0,1.0,79,0.00,FEW,FEW,0.00,0.0,WeatherDisplay:10.37,2013-08-24 05:27:00,
2013-08-24 00:32:00,75.5,68.5,30.04,East,100,0.0,3.0,79,0.00,FEW,FEW,0.00,0.0,WeatherDisplay:10.37,2013-08-24 05:32:00,
2013-08-24 00:37:00,75.5,68.9,30.05,SE,136,0.9,5.8,80,0.00,FEW,,0.00,0.0,WeatherDisplay:10.37,2013-08-24 05:37:00,
2013-08-24 00:42:00,75.4,68.8,30.05,SE,124,0.0,2.0,80,0.00,FEW,FEW,0.00,0.0,WeatherDisplay:10.37,2013-08-24 05:42:00,
2013-08-24 00:47:00,75.2,68.6,30.05,SE,128,0.0,1.0,80,0.00,FEW,FEW,0.00,0.0,WeatherDisplay:10.37,2013-08-24 05:47:00,
2013-08-24 00:52:00,75.2,68.6,30.05,SE,131,0.0,2.0,80,0.00,FEW,FEW,0.00,0.0,WeatherDisplay:10.37,2013-08-24 05:52:00,
2013-08-24 00:57:00,75.1,68.5,30.05,SE,142,1.0,8.0,80,0.00,FEW,FEW,0.00,0.0,WeatherDisplay:10.37,2013-08-24 05:57:00,
2013-08-24 01:02:00,75.0,68.4,30.05,SSE,157,0.0,0.0,80,0.00,FEW,,0.00,0.0,WeatherDisplay:10.37,2013-08-24 06:02:00,
2013-08-24 01:07:00,74.9,68.7,30.05,SSE,160,1.6,4.6,81,0.00,FEW,,0.00,0.0,WeatherDisplay:10.37,2013-08-24 06:07:00,
2013-08-24 01:12:00,74.9,68.7,30.05,ESE,121,0.0,3.5,81,0.00,FEW,,0.00,0.0,WeatherDisplay:10.37,2013-08-24 06:12:00,
2013-08-24 01:18:00,74.8,68.6,30.05,South,169,0.0,0.0,81,0.00,FEW,,0.00,0.0,WeatherDisplay:10.37,2013-08-24 06:18:00,
2013-08-24 01:23:00,74.6,68.4,30.05,ESE,113,0.2,2.3,81,0.00,FEW,,0.00,0.0,WeatherDisplay:10.37,2013-08-24 06:23:00,
2013-08-24 01:28:00,74.6,68.4,30.05,ESE,117,0.0,0.0,81,0.00,FEW,,0.00,0.0,WeatherDisplay:10.37,2013-08-24 06:28:00,
2013-08-24 01:33:00,74.5,68.3,30.05,ESE,108,0.0,0.0,81,0.00,FEW,,0.00,0.0,WeatherDisplay:10.37,2013-08-24 06:33:00,
2013-08-24 01:39:00,74.4,68.5,30.05,SW,215,0.0,0.0,82,0.00,FEW,,0.00,0.0,WeatherDisplay:10.37,2013-08-24 06:39:00,
2013-08-24 01:44:00,74.3,68.4,30.05,WNW,292,0.0,0.0,82,0.00,FEW,,0.00,0.0,WeatherDisplay:10.37,2013-08-24 06:44:00,
2013-08-24 01:49:00,74.2,68.3,30.05,ESE,110,0.0,0.0,82,0.00,FEW,,0.00,0.0,WeatherDisplay:10.37,2013-08-24 06:49:00,
2013-08-24 01:54:00,74.1,68.3,30.05,ENE,77,0.2,3.5,82,0.00,FEW,,0.00,0.0,WeatherDisplay:10.37,2013-08-24 06:54:00,
2013-08-24 02:00:00,74.1,68.3,30.05,ENE,77,0.0,0.0,82,0.00,FEW,,0.00,0.0,WeatherDisplay:10.37,2013-08-24 07:00:00,
2013-08-24 02:05:00,74.0,68.2,30.05,ESE,109,0.0,0.0,82,0.00,FEW,,0.00,0.0,WeatherDisplay:10.37,2013-08-24 07:05:00,
2013-08-24 02:10:00,73.9,68.4,30.05,SW,224,0.2,2.0,83,0.00,FEW,,0.00,0.0,WeatherDisplay:10.37,2013-08-24 07:10:00,
2013-08-24 02:15:00,73.9,68.4,30.05,SE,140,0.0,0.0,83,0.00,FEW,,0.00,0.0,WeatherDisplay:10.37,2013-08-24 07:15:00,
2013-08-24 02:21:00,73.7,68.2,30.05,SE,124,0.1,1.2,83,0.00,FEW,,0.00,0.0,WeatherDisplay:10.37,2013-08-24 07:21:00,
2013-08-24 02:26:00,73.7,68.2,30.05,East,84,0.0,1.2,83,0.00,FEW,,0.00,0.0,WeatherDisplay:10.37,2013-08-24 07:26:00,
2013-08-24 02:31:00,73.7,68.2,30.05,East,84,0.0,0.0,83,0.00,FEW,,0.00,0.0,WeatherDisplay:10.37,2013-08-24 07:31:00,
2013-08-24 02:36:00,73.5,68.0,30.05,East,84,0.0,0.0,83,0.00,FEW,,0.00,0.0,WeatherDisplay:10.37,2013-08-24 07:36:00,
2013-08-24 02:42:00,73.5,68.4,30.05,East,79,0.0,0.0,84,0.00,FEW,FEW,0.00,0.0,WeatherDisplay:10.37,2013-08-24 07:42:00,
2013-08-24 02:47:00,73.5,68.3,30.05,ENE,74,0.0,0.0,84,0.00,FEW,FEW,0.00,0.0,WeatherDisplay:10.37,2013-08-24 07:47:00,
2013-08-24 02:52:00,73.3,68.2,30.05,East,84,0.0,3.0,84,0.00,FEW,FEW,0.00,0.0,WeatherDisplay:10.37,2013-08-24 07:52:00,
2013-08-24 02:57:00,73.5,68.3,30.06,East,98,0.0,3.0,84,0.00,FEW,FEW,0.00,0.0,WeatherDisplay:10.37,2013-08-24 07:57:00,
2013-08-24 03:02:00,73.4,68.3,30.06,East,101,0.0,0.0,84,0.00,FEW,,0.00,0.0,WeatherDisplay:10.37,2013-08-24 08:02:00,
2013-08-24 03:07:00,73.5,68.4,30.06,ESE,119,0.0,1.0,84,0.00,FEW,FEW,0.00,0.0,WeatherDisplay:10.37,2013-08-24 08:07:00,
2013-08-24 03:12:00,73.5,68.4,30.06,South,173,0.0,0.0,84,0.00,FEW,FEW,0.00,0.0,WeatherDisplay:10.37,2013-08-24 08:12:00,
2013-08-24 03:17:00,73.4,68.3,30.06,South,175,0.0,1.0,84,0.00,FEW,FEW,0.00,0.0,WeatherDisplay:10.37,2013-08-24 08:17:00,
2013-08-24 03:22:00,73.4,68.3,30.06,ESE,114,0.0,0.0,84,0.00,FEW,FEW,0.00,0.0,WeatherDisplay:10.37,2013-08-24 08:22:00,
2013-08-24 03:27:00,73.4,68.3,30.06,SE,140,0.0,1.0,84,0.00,FEW,FEW,0.00,0.0,WeatherDisplay:10.37,2013-08-24 08:27:00,
2013-08-24 03:32:00,73.3,68.2,30.06,South,184,0.0,6.0,84,0.00,FEW,FEW,0.00,0.0,WeatherDisplay:10.37,2013-08-24 08:32:00,
2013-08-24 03:37:00,73.3,68.2,30.06,SE,142,0.0,2.0,84,0.00,FEW,FEW,0.00,0.0,WeatherDisplay:10.37,2013-08-24 08:37:00,
2013-08-24 03:42:00,73.3,68.2,30.06,ESE,109,0.0,4.0,84,0.00,FEW,FEW,0.00,0.0,WeatherDisplay:10.37,2013-08-24 08:42:00,
2013-08-24 03:47:00,73.1,68.3,30.06,ESE,115,0.0,0.0,85,0.00,FEW,FEW,0.00,0.0,WeatherDisplay:10.37,2013-08-24 08:47:00,
2013-08-24 03:52:00,73.0,68.2,30.06,ESE,117,0.0,0.0,85,0.00,FEW,FEW,0.00,0.0,WeatherDisplay:10.37,2013-08-24 08:52:00,
2013-08-24 03:57:00,72.9,68.2,30.06,ESE,117,0.0,0.0,85,0.00,FEW,FEW,0.00,0.0,WeatherDisplay:10.37,2013-08-24 08:57:00,
2013-08-24 04:02:00,72.8,68.0,30.06,ESE,117,0.0,0.0,85,0.00,FEW,FEW,0.00,0.0,WeatherDisplay:10.37,2013-08-24 09:02:00,
2013-08-24 04:07:00,72.7,67.9,30.06,ESE,117,0.0,1.0,85,0.00,FEW,FEW,0.00,0.0,WeatherDisplay:10.37,2013-08-24 09:07:00,
2013-08-24 04:12:00,72.6,68.2,30.06,ESE,117,0.0,0.0,86,0.00,FEW,FEW,0.00,0.0,WeatherDisplay:10.37,2013-08-24 09:12:00,
2013-08-24 04:17:00,72.3,67.9,30.06,ESE,116,0.0,0.0,86,0.00,FEW,FEW,0.00,0.0,WeatherDisplay:10.37,2013-08-24 09:17:00,
2013-08-24 04:22:00,72.2,67.8,30.07,South,169,0.0,0.0,86,0.00,FEW,FEW,0.00,0.0,WeatherDisplay:10.37,2013-08-24 09:22:00,
2013-08-24 04:27:00,72.1,68.0,30.06,SSW,207,0.0,0.0,87,0.00,FEW,FEW,0.00,0.0,WeatherDisplay:10.37,2013-08-24 09:27:00,
2013-08-24 04:32:00,72.0,67.9,30.07,SSW,208,0.0,0.0,87,0.00,FEW,FEW,0.00,0.0,WeatherDisplay:10.37,2013-08-24 09:32:00,
2013-08-24 04:37:00,72.0,67.9,30.07,SSW,208,0.0,0.0,87,0.00,FEW,FEW,0.00,0.0,WeatherDisplay:10.37,2013-08-24 09:37:00,
2013-08-24 04:42:00,71.9,67.8,30.07,SSW,208,0.0,0.0,87,0.00,FEW,FEW,0.00,0.0,WeatherDisplay:10.37,2013-08-24 09:42:00,
2013-08-24 04:47:00,71.6,67.9,30.07,SSW,208,0.0,0.0,88,0.00,FEW,FEW,0.00,0.0,WeatherDisplay:10.37,2013-08-24 09:47:00,
2013-08-24 04:52:00,71.5,67.8,30.07,SSW,208,0.0,0.0,88,0.00,FEW,FEW,0.00,0.0,WeatherDisplay:10.37,2013-08-24 09:52:00,
2013-08-24 04:57:00,71.5,67.8,30.07,SSW,211,0.0,0.0,88,0.00,FEW,FEW,0.00,0.0,WeatherDisplay:10.37,2013-08-24 09:57:00,
2013-08-24 05:02:00,71.7,67.9,30.07,SW,216,0.0,0.0,88,0.00,FEW,FEW,0.00,0.0,WeatherDisplay:10.37,2013-08-24 10:02:00,
2013-08-24 05:07:00,71.8,68.1,30.07,South,183,0.0,1.0,88,0.00,FEW,FEW,0.00,0.0,WeatherDisplay:10.37,2013-08-24 10:07:00,
2013-08-24 05:12:00,71.9,68.2,30.07,SE,130,0.0,0.0,88,0.00,FEW,FEW,0.00,0.0,WeatherDisplay:10.37,2013-08-24 10:12:00,
2013-08-24 05:17:00,71.8,68.1,30.07,SE,133,0.0,1.0,88,0.00,FEW,FEW,0.00,0.0,WeatherDisplay:10.37,2013-08-24 10:17:00,
2013-08-24 05:22:00,71.7,68.0,30.07,SE,139,0.0,0.0,88,0.00,FEW,FEW,0.00,0.0,WeatherDisplay:10.37,2013-08-24 10:22:00,
2013-08-24 05:27:00,71.7,68.0,30.07,SE,139,0.0,0.0,88,0.00,FEW,FEW,0.00,0.0,WeatherDisplay:10.37,2013-08-24 10:27:00,
2013-08-24 05:32:00,71.7,68.0,30.07,SE,139,0.0,0.0,88,0.00,FEW,FEW,0.00,0.0,WeatherDisplay:10.37,2013-08-24 10:32:00,
2013-08-24 05:37:00,71.6,67.9,30.07,SE,139,0.0,0.0,88,0.00,FEW,FEW,0.00,0.0,WeatherDisplay:10.37,2013-08-24 10:37:00,
2013-08-24 05:42:00,71.6,67.9,30.08,SE,139,0.0,0.0,88,0.00,FEW,FEW,0.00,0.0,WeatherDisplay:10.37,2013-08-24 10:42:00,
2013-08-24 05:47:00,71.6,67.9,30.08,SE,139,0.0,0.0,88,0.00,FEW,FEW,0.00,0.0,WeatherDisplay:10.37,2013-08-24 10:47:00,
2013-08-24 05:52:00,71.4,67.6,30.08,SE,139,0.0,0.0,88,0.00,FEW,FEW,0.00,0.0,WeatherDisplay:10.37,2013-08-24 10:52:00,
2013-08-24 05:57:00,71.3,67.9,30.08,SE,139,0.0,0.0,89,0.00,FEW,FEW,0.00,0.0,WeatherDisplay:10.37,2013-08-24 10:57:00,
2013-08-24 06:02:00,71.4,67.9,30.09,SE,139,0.0,0.0,89,0.00,FEW,FEW,0.00,0.0,WeatherDisplay:10.37,2013-08-24 11:02:00,
2013-08-24 06:07:00,71.3,67.9,30.09,SE,139,0.0,0.0,89,0.00,FEW,FEW,0.00,0.0,WeatherDisplay:10.37,2013-08-24 11:07:00,
2013-08-24 06:12:00,71.3,67.9,30.09,SE,139,0.0,0.0,89,0.00,FEW,FEW,0.00,0.0,WeatherDisplay:10.37,2013-08-24 11:12:00,
2013-08-24 06:17:00,71.3,67.9,30.09,SE,139,0.0,0.0,89,0.00,FEW,FEW,0.00,0.0,WeatherDisplay:10.37,2013-08-24 11:17:00,
2013-08-24 06:22:00,70.8,67.7,30.09,SE,139,0.0,0.0,90,0.00,FEW,FEW,0.00,0.0,WeatherDisplay:10.37,2013-08-24 11:22:00,
2013-08-24 06:27:00,70.9,67.5,30.09,SE,139,0.0,0.0,89,0.00,FEW,FEW,0.00,5.0,WeatherDisplay:10.37,2013-08-24 11:27:00,
2013-08-24 06:32:00,70.9,67.8,30.09,SE,139,0.0,0.0,90,0.00,FEW,FEW,0.00,9.0,WeatherDisplay:10.37,2013-08-24 11:32:00,
2013-08-24 06:37:00,71.1,67.7,30.10,SE,138,0.0,0.0,89,0.00,FEW,FEW,0.00,14.0,WeatherDisplay:10.37,2013-08-24 11:37:00,
2013-08-24 06:42:00,71.3,67.9,30.10,SE,137,0.0,0.0,89,0.00,FEW,FEW,0.00,19.0,WeatherDisplay:10.37,2013-08-24 11:42:00,
2013-08-24 06:47:00,71.5,68.1,30.10,SE,137,0.0,0.0,89,0.00,FEW,FEW,0.00,28.0,WeatherDisplay:10.37,2013-08-24 11:47:00,
2013-08-24 06:52:00,71.6,68.2,30.10,SE,137,0.0,0.0,89,0.00,FEW,FEW,0.00,32.0,WeatherDisplay:10.37,2013-08-24 11:52:00,
2013-08-24 06:57:00,71.7,68.0,30.11,SE,137,0.0,0.0,88,0.00,FEW,,0.00,35.0,WeatherDisplay:10.37,2013-08-24 11:57:00,
2013-08-24 07:02:00,71.8,68.1,30.10,SE,137,0.0,0.0,88,0.00,FEW,FEW,0.00,42.0,WeatherDisplay:10.37,2013-08-24 12:02:00,
2013-08-24 07:07:00,71.9,68.1,30.11,SE,137,0.0,0.0,88,0.00,FEW,FEW,0.00,42.0,WeatherDisplay:10.37,2013-08-24 12:07:00,
2013-08-24 07:12:00,71.9,68.2,30.10,SE,137,0.0,0.0,88,0.00,FEW,FEW,0.00,46.0,WeatherDisplay:10.37,2013-08-24 12:12:00,
2013-08-24 07:17:00,72.0,68.2,30.11,SE,137,0.0,0.0,88,0.00,FEW,FEW,0.00,44.0,WeatherDisplay:10.37,2013-08-24 12:17:00,
2013-08-24 07:22:00,72.1,68.3,30.11,SE,137,0.0,0.0,88,0.00,FEW,FEW,0.00,44.0,WeatherDisplay:10.37,2013-08-24 12:22:00,
2013-08-24 07:27:00,72.2,68.4,30.11,SE,137,0.0,0.0,88,0.00,FEW,FEW,0.00,49.0,WeatherDisplay:10.37,2013-08-24 12:27:00,
2013-08-24 07:32:00,72.3,68.5,30.11,South,184,0.0,0.0,88,0.00,FEW,,0.00,54.0,WeatherDisplay:10.37,2013-08-24 12:32:00,
2013-08-24 07:37:00,72.4,68.3,30.11,South,184,0.0,0.0,87,0.00,FEW,FEW,0.00,62.0,WeatherDisplay:10.37,2013-08-24 12:37:00,
2013-08-24 07:42:00,72.5,68.4,30.11,South,184,0.0,0.0,87,0.00,FEW,FEW,0.00,67.0,WeatherDisplay:10.37,2013-08-24 12:42:00,
2013-08-24 07:47:00,72.6,68.5,30.11,South,175,0.0,0.0,87,0.00,FEW,FEW,0.00,72.0,WeatherDisplay:10.37,2013-08-24 12:47:00,
2013-08-24 07:52:00,72.8,68.7,30.11,SSE,154,0.0,0.0,87,0.00,FEW,FEW,0.00,79.0,WeatherDisplay:10.37,2013-08-24 12:52:00,
2013-08-24 07:57:00,72.9,68.8,30.11,SSE,152,0.0,0.0,87,0.00,FEW,FEW,0.00,84.0,WeatherDisplay:10.37,2013-08-24 12:57:00,
2013-08-24 08:02:00,73.1,68.7,30.11,South,170,0.0,0.0,86,0.00,FEW,FEW,0.00,93.0,WeatherDisplay:10.37,2013-08-24 13:02:00,
2013-08-24 08:07:00,73.3,68.8,30.11,South,185,1.0,5.0,86,0.00,FEW,FEW,0.00,102.0,WeatherDisplay:10.37,2013-08-24 13:07:00,
2013-08-24 08:12:00,73.6,69.1,30.12,SSE,163,0.0,3.0,86,0.00,FEW,FEW,0.00,102.0,WeatherDisplay:10.37,2013-08-24 13:12:00,
2013-08-24 08:17:00,73.8,69.0,30.12,SSE,149,0.0,1.0,85,0.00,FEW,FEW,0.00,102.0,WeatherDisplay:10.37,2013-08-24 13:17:00,
2013-08-24 08:22:00,73.9,69.1,30.12,SSE,165,0.0,2.0,85,0.00,FEW,FEW,0.00,93.0,WeatherDisplay:10.37,2013-08-24 13:22:00,
2013-08-24 08:27:00,73.9,69.1,30.12,South,190,0.0,0.0,85,0.00,FEW,,0.00,84.0,WeatherDisplay:10.37,2013-08-24 13:27:00,
2013-08-24 08:32:00,73.9,69.1,30.12,South,175,1.0,6.0,85,0.00,FEW,FEW,0.00,79.0,WeatherDisplay:10.37,2013-08-24 13:32:00,
2013-08-24 08:37:00,74.0,69.2,30.12,ESE,110,0.0,1.0,85,0.00,FEW,FEW,0.00,79.0,WeatherDisplay:10.37,2013-08-24 13:37:00,
2013-08-24 08:42:00,74.0,69.2,30.12,East,80,0.0,2.0,85,0.00,FEW,FEW,0.00,79.0,WeatherDisplay:10.37,2013-08-24 13:42:00,
2013-08-24 08:47:00,74.0,69.2,30.12,ESE,114,0.0,0.0,85,0.00,FEW,FEW,0.00,76.0,WeatherDisplay:10.37,2013-08-24 13:47:00,
2013-08-24 08:52:00,74.1,69.7,30.12,SE,144,0.0,0.0,86,0.00,FEW,FEW,0.00,44.0,WeatherDisplay:10.37,2013-08-24 13:52:00,
2013-08-24 08:57:00,74.4,69.6,30.12,SE,144,0.0,1.0,85,0.00,FEW,FEW,0.00,60.0,WeatherDisplay:10.37,2013-08-24 13:57:00,
2013-08-24 09:02:00,74.4,69.6,30.12,SSE,151,0.0,4.0,85,0.00,FEW,FEW,0.00,56.0,WeatherDisplay:10.37,2013-08-24 14:02:00,
2013-08-24 09:07:00,74.4,69.6,30.12,South,172,0.0,0.0,85,0.00,FEW,FEW,0.00,69.0,WeatherDisplay:10.37,2013-08-24 14:07:00,
2013-08-24 09:12:00,74.7,69.9,30.12,South,172,0.0,0.0,85,0.00,FEW,FEW,0.00,95.0,WeatherDisplay:10.37,2013-08-24 14:12:00,
2013-08-24 09:17:00,75.4,70.3,30.11,South,174,0.0,2.0,84,0.00,FEW,FEW,0.00,100.0,WeatherDisplay:10.37,2013-08-24 14:17:00,
2013-08-24 09:22:00,76.3,70.7,30.11,South,171,1.0,7.0,83,0.00,FEW,FEW,0.00,109.0,WeatherDisplay:10.37,2013-08-24 14:22:00,
2013-08-24 09:27:00,76.7,70.8,30.12,SSE,164,0.0,4.0,82,0.00,FEW,FEW,0.00,116.0,WeatherDisplay:10.37,2013-08-24 14:27:00,
2013-08-24 09:32:00,76.8,70.2,30.11,SSE,147,1.0,6.0,80,0.00,FEW,FEW,0.00,105.0,WeatherDisplay:10.37,2013-08-24 14:32:00,
2013-08-24 09:37:00,76.8,70.2,30.11,SSE,155,0.0,2.0,80,0.00,FEW,FEW,0.00,81.0,WeatherDisplay:10.37,2013-08-24 14:37:00,
2013-08-24 09:42:00,76.7,70.4,30.11,South,189,0.0,5.0,81,0.00,FEW,FEW,0.00,165.0,WeatherDisplay:10.37,2013-08-24 14:42:00,
2013-08-24 09:47:00,76.9,70.6,30.11,SSE,163,1.0,4.0,81,0.00,FEW,FEW,0.00,100.0,WeatherDisplay:10.37,2013-08-24 14:47:00,
2013-08-24 09:52:00,77.4,71.1,30.11,SE,134,0.0,5.0,81,0.00,FEW,FEW,0.00,114.0,WeatherDisplay:10.37,2013-08-24 14:52:00,
2013-08-24 09:57:00,78.2,71.2,30.11,South,190,0.0,3.5,79,0.00,FEW,,0.00,121.0,WeatherDisplay:10.37,2013-08-24 14:57:00,
2013-08-24 10:02:00,78.5,71.1,30.11,South,172,0.0,5.0,78,0.00,FEW,FEW,0.00,116.0,WeatherDisplay:10.37,2013-08-24 15:02:00,
2013-08-24 10:07:00,78.6,71.1,30.11,SSE,165,0.0,5.0,78,0.00,FEW,FEW,0.00,116.0,WeatherDisplay:10.37,2013-08-24 15:07:00,
2013-08-24 10:12:00,79.0,71.6,30.11,SE,142,0.0,5.0,78,0.00,FEW,FEW,0.00,120.0,WeatherDisplay:10.37,2013-08-24 15:12:00,
2013-08-24 10:17:00,79.6,71.8,30.11,SE,140,0.0,7.0,77,0.00,FEW,FEW,0.00,118.0,WeatherDisplay:10.37,2013-08-24 15:17:00,
2013-08-24 10:22:00,80.0,72.1,30.11,SE,126,0.0,1.0,77,0.00,FEW,FEW,0.00,125.0,WeatherDisplay:10.37,2013-08-24 15:22:00,
2013-08-24 10:27:00,80.3,72.0,30.11,ESE,122,0.0,2.0,76,0.00,FEW,FEW,0.00,121.0,WeatherDisplay:10.37,2013-08-24 15:27:00,
2013-08-24 10:32:00,80.5,71.8,30.11,South,170,1.0,10.0,75,0.00,FEW,FEW,0.00,120.0,WeatherDisplay:10.37,2013-08-24 15:32:00,
2013-08-24 10:37:00,80.7,71.6,30.11,SE,137,0.0,4.0,74,0.00,FEW,FEW,0.00,141.0,WeatherDisplay:10.37,2013-08-24 15:37:00,
2013-08-24 10:42:00,81.2,72.1,30.11,East,86,0.0,4.0,74,0.00,FEW,FEW,0.00,253.0,WeatherDisplay:10.37,2013-08-24 15:42:00,
2013-08-24 10:47:00,82.1,72.2,30.11,ENE,77,1.0,8.0,72,0.00,FEW,FEW,0.00,221.0,WeatherDisplay:10.37,2013-08-24 15:47:00,
2013-08-24 10:52:00,82.8,72.4,30.10,SE,126,2.6,2.6,71,0.00,FEW,,0.00,308.0,WeatherDisplay:10.37,2013-08-24 15:52:00,
2013-08-24 10:57:00,83.2,72.4,30.11,South,170,1.0,5.0,70,0.00,FEW,FEW,0.00,308.0,WeatherDisplay:10.37,2013-08-24 15:57:00,
2013-08-24 11:02:00,83.7,72.9,30.11,South,183,0.0,5.0,70,0.00,FEW,FEW,0.00,322.0,WeatherDisplay:10.37,2013-08-24 16:02:00,
2013-08-24 11:07:00,83.3,72.5,30.11,South,188,0.0,10.0,70,0.00,FEW,FEW,0.00,448.0,WeatherDisplay:10.37,2013-08-24 16:07:00,
2013-08-24 11:12:00,83.3,72.9,30.11,South,180,0.0,4.0,71,0.00,FEW,FEW,0.00,432.0,WeatherDisplay:10.37,2013-08-24 16:12:00,
2013-08-24 11:17:00,83.4,72.6,30.11,South,178,0.0,4.0,70,0.00,FEW,FEW,0.00,338.0,WeatherDisplay:10.37,2013-08-24 16:17:00,
2013-08-24 11:22:00,83.0,72.6,30.11,South,186,0.0,3.0,71,0.00,FEW,FEW,0.00,295.0,WeatherDisplay:10.37,2013-08-24 16:22:00,
2013-08-24 11:27:00,82.8,72.8,30.11,SSW,203,1.4,0.0,72,0.00,FEW,,0.00,287.0,WeatherDisplay:10.37,2013-08-24 16:27:00,
2013-08-24 11:32:00,83.0,73.0,30.11,South,187,0.0,0.0,72,0.00,FEW,FEW,0.00,281.0,WeatherDisplay:10.37,2013-08-24 16:32:00,
2013-08-24 11:37:00,83.3,72.9,30.11,SSW,202,0.0,1.0,71,0.00,FEW,FEW,0.00,294.0,WeatherDisplay:10.37,2013-08-24 16:37:00,
2013-08-24 11:42:00,83.7,74.2,30.11,South,177,0.0,0.0,73,0.00,FEW,FEW,0.00,341.0,WeatherDisplay:10.37,2013-08-24 16:42:00,
2013-08-24 11:47:00,84.0,73.2,30.11,South,173,0.0,2.0,70,0.00,FEW,FEW,0.00,443.0,WeatherDisplay:10.37,2013-08-24 16:47:00,
2013-08-24 11:52:00,84.2,72.9,30.10,South,169,1.0,6.0,69,0.00,FEW,FEW,0.00,464.0,WeatherDisplay:10.37,2013-08-24 16:52:00,
2013-08-24 12:27:00,85.2,72.6,30.10,SW,215,1.5,3.0,66,0.00,FEW,,0.00,392.0,WeatherDisplay:10.37,2013-08-24 17:27:00,
2013-08-24 12:32:00,85.7,73.0,30.10,South,171,1.0,10.0,66,0.00,FEW,FEW,0.00,450.0,WeatherDisplay:10.37,2013-08-24 17:32:00,
2013-08-24 12:37:00,85.6,72.5,30.10,South,175,0.3,9.2,65,0.00,FEW,,0.00,399.0,WeatherDisplay:10.37,2013-08-24 17:37:00,
2013-08-24 12:42:00,85.6,72.9,30.10,SSE,159,0.0,5.0,66,0.00,FEW,FEW,0.00,385.0,WeatherDisplay:10.37,2013-08-24 17:42:00,
2013-08-24 12:47:00,85.8,73.6,30.09,ESE,103,0.0,1.0,67,0.00,FEW,FEW,0.00,366.0,WeatherDisplay:10.37,2013-08-24 17:47:00,
2013-08-24 12:52:00,85.8,72.7,30.10,East,87,0.0,3.0,65,0.00,FEW,FEW,0.00,424.0,WeatherDisplay:10.37,2013-08-24 17:52:00,
2013-08-24 12:57:00,86.2,72.6,30.09,ESE,102,0.0,4.0,64,0.00,FEW,FEW,0.00,510.0,WeatherDisplay:10.37,2013-08-24 17:57:00,
2013-08-24 13:02:00,86.6,72.5,30.09,SSE,157,0.0,8.0,63,0.00,FEW,FEW,0.00,570.0,WeatherDisplay:10.37,2013-08-24 18:02:00,
2013-08-24 13:07:00,86.7,72.6,30.08,South,176,1.0,4.0,63,0.00,FEW,FEW,0.00,413.0,WeatherDisplay:10.37,2013-08-24 18:07:00,
2013-08-24 13:12:00,86.9,72.8,30.08,SSE,168,1.0,5.0,63,0.00,FEW,FEW,0.00,503.0,WeatherDisplay:10.37,2013-08-24 18:12:00,
2013-08-24 13:17:00,87.1,72.0,30.08,South,169,1.0,6.0,61,0.00,FEW,FEW,0.00,728.0,WeatherDisplay:10.37,2013-08-24 18:17:00,
2013-08-24 13:22:00,87.7,72.6,30.08,South,189,0.0,1.0,61,0.00,FEW,FEW,0.00,772.0,WeatherDisplay:10.37,2013-08-24 18:22:00,
2013-08-24 13:27:00,88.4,73.7,30.07,SW,216,0.0,2.0,62,0.00,FEW,FEW,0.00,846.0,WeatherDisplay:10.37,2013-08-24 18:27:00,
2013-08-24 13:32:00,89.2,73.5,30.07,WSW,239,0.5,5.8,60,0.00,FEW,,0.00,949.0,WeatherDisplay:10.37,2013-08-24 18:32:00,
2013-08-24 13:37:00,89.3,73.5,30.07,SE,124,0.0,9.0,60,0.00,FEW,FEW,0.00,949.0,WeatherDisplay:10.37,2013-08-24 18:37:00,
2013-08-24 13:42:00,90.2,72.3,30.06,SSE,162,1.0,6.0,56,0.00,FEW,FEW,0.00,944.0,WeatherDisplay:10.37,2013-08-24 18:42:00,
2013-08-24 13:47:00,89.9,72.6,30.06,South,177,0.0,15.0,57,0.00,FEW,FEW,0.00,668.0,WeatherDisplay:10.37,2013-08-24 18:47:00,
2013-08-24 13:52:00,90.5,72.7,30.06,SSE,162,1.0,6.0,56,0.00,FEW,FEW,0.00,991.0,WeatherDisplay:10.37,2013-08-24 18:52:00,
2013-08-24 13:57:00,90.6,72.8,30.06,ESE,123,0.0,2.0,56,0.00,FEW,FEW,0.00,830.0,WeatherDisplay:10.37,2013-08-24 18:57:00,
2013-08-24 14:02:00,91.1,72.2,30.06,SE,141,0.0,6.0,54,0.00,FEW,FEW,0.00,814.0,WeatherDisplay:10.37,2013-08-24 19:02:00,
2013-08-24 14:07:00,91.0,71.0,30.06,South,170,3.0,10.0,52,0.00,FEW,FEW,0.00,770.0,WeatherDisplay:10.37,2013-08-24 19:07:00,
2013-08-24 14:12:00,90.7,71.2,30.06,SSE,154,1.0,6.0,53,0.00,FEW,FEW,0.00,605.0,WeatherDisplay:10.37,2013-08-24 19:12:00,
2013-08-24 14:17:00,90.0,71.1,30.06,SSE,156,1.0,9.0,54,0.00,FEW,FEW,0.00,638.0,WeatherDisplay:10.37,2013-08-24 19:17:00,
2013-08-24 14:22:00,90.4,70.9,30.06,South,175,1.0,8.0,53,0.00,FEW,FEW,0.00,487.0,WeatherDisplay:10.37,2013-08-24 19:22:00,
2013-08-24 14:27:00,89.9,71.0,30.05,SSW,199,0.0,6.0,54,0.00,FEW,FEW,0.00,441.0,WeatherDisplay:10.37,2013-08-24 19:27:00,
2013-08-24 14:32:00,89.8,70.4,30.05,South,173,2.0,5.0,53,0.00,FEW,FEW,0.00,380.0,WeatherDisplay:10.37,2013-08-24 19:32:00,
2013-08-24 14:37:00,89.3,70.5,30.05,SSE,160,0.0,3.0,54,0.00,FEW,FEW,0.00,432.0,WeatherDisplay:10.37,2013-08-24 19:37:00,
2013-08-24 14:42:00,89.4,70.5,30.05,SE,136,1.0,9.0,54,0.00,FEW,FEW,0.00,499.0,WeatherDisplay:10.37,2013-08-24 19:42:00,
2013-08-24 14:47:00,89.8,71.0,30.05,SE,142,0.0,9.0,54,0.00,FEW,FEW,0.00,687.0,WeatherDisplay:10.37,2013-08-24 19:47:00,
2013-08-24 14:52:00,89.9,70.5,30.05,NNE,16,2.0,12.0,53,0.00,FEW,FEW,0.00,508.0,WeatherDisplay:10.37,2013-08-24 19:52:00,
2013-08-24 14:57:00,90.1,71.2,30.04,WSW,247,0.0,5.0,54,0.00,FEW,FEW,0.00,494.0,WeatherDisplay:10.37,2013-08-24 19:57:00,
2013-08-24 15:02:00,90.2,71.3,30.04,SSW,201,0.0,6.9,54,0.00,FEW,,0.00,649.0,WeatherDisplay:10.37,2013-08-24 20:02:00,
2013-08-24 15:07:00,91.1,71.1,30.04,SSW,200,2.0,12.0,52,0.00,FEW,FEW,0.00,900.0,WeatherDisplay:10.37,2013-08-24 20:07:00,
2013-08-24 15:12:00,91.7,70.4,30.03,SSE,157,2.0,12.0,50,0.00,FEW,FEW,0.00,863.0,WeatherDisplay:10.37,2013-08-24 20:12:00,
2013-08-24 15:17:00,91.9,70.0,30.04,SE,136,1.0,12.0,49,0.00,FEW,FEW,0.00,789.0,WeatherDisplay:10.37,2013-08-24 20:17:00,
2013-08-24 15:22:00,91.9,70.6,30.03,SE,130,1.0,5.0,50,0.00,FEW,FEW,0.00,729.0,WeatherDisplay:10.37,2013-08-24 20:22:00,
2013-08-24 15:27:00,91.8,70.5,30.03,SE,136,1.0,6.0,50,0.00,FEW,FEW,0.00,719.0,WeatherDisplay:10.37,2013-08-24 20:27:00,
2013-08-24 15:32:00,91.9,71.2,30.04,SSE,148,1.0,9.0,51,0.00,FEW,FEW,0.00,761.0,WeatherDisplay:10.37,2013-08-24 20:32:00,
2013-08-24 15:37:00,91.9,71.2,30.04,South,191,1.0,10.0,51,0.00,FEW,FEW,0.00,647.0,WeatherDisplay:10.37,2013-08-24 20:37:00,
2013-08-24 15:42:00,91.8,70.5,30.04,South,169,2.0,7.0,50,0.00,FEW,FEW,0.00,654.0,WeatherDisplay:10.37,2013-08-24 20:42:00,
2013-08-24 15:47:00,91.8,70.5,30.04,South,176,0.0,10.0,50,0.00,FEW,FEW,0.00,610.0,WeatherDisplay:10.37,2013-08-24 20:47:00,
2013-08-24 15:52:00,91.8,70.5,30.03,SSW,213,1.0,12.0,50,0.00,FEW,FEW,0.00,650.0,WeatherDisplay:10.37,2013-08-24 20:52:00,
2013-08-24 15:57:00,91.7,71.6,30.03,WNW,284,1.0,12.0,52,0.00,FEW,FEW,0.00,710.0,WeatherDisplay:10.37,2013-08-24 20:57:00,
2013-08-24 16:02:00,92.2,70.3,30.03,SSW,212,0.0,13.0,49,0.00,FEW,FEW,0.00,680.0,WeatherDisplay:10.37,2013-08-24 21:02:00,
2013-08-24 16:07:00,92.2,70.9,30.03,SSW,194,5.0,12.0,50,0.00,FEW,FEW,0.00,714.0,WeatherDisplay:10.37,2013-08-24 21:07:00,
2013-08-24 16:12:00,92.1,71.4,30.02,South,176,1.0,9.0,51,0.00,FEW,FEW,0.00,693.0,WeatherDisplay:10.37,2013-08-24 21:12:00,
2013-08-24 16:17:00,92.6,70.7,30.03,South,179,3.0,12.0,49,0.00,FEW,FEW,0.00,689.0,WeatherDisplay:10.37,2013-08-24 21:17:00,
2013-08-24 16:22:00,92.2,70.3,30.02,South,176,0.0,9.0,49,0.00,FEW,FEW,0.00,635.0,WeatherDisplay:10.37,2013-08-24 21:22:00,
2013-08-24 16:27:00,91.9,70.0,30.02,SSE,162,2.0,7.0,49,0.00,FEW,FEW,0.00,536.0,WeatherDisplay:10.37,2013-08-24 21:27:00,
2013-08-24 16:32:00,91.4,70.1,30.03,SE,142,2.0,9.0,50,0.00,FEW,FEW,0.00,508.0,WeatherDisplay:10.37,2013-08-24 21:32:00,
2013-08-24 16:37:00,91.2,70.5,30.03,SSE,166,0.0,6.0,51,0.00,FEW,FEW,0.00,452.0,WeatherDisplay:10.37,2013-08-24 21:37:00,
2013-08-24 16:42:00,91.1,69.9,30.03,SSE,165,2.0,14.0,50,0.00,FEW,FEW,0.00,399.0,WeatherDisplay:10.37,2013-08-24 21:42:00,
2013-08-24 16:47:00,90.6,69.5,30.03,SSE,152,2.0,10.0,50,0.00,FEW,FEW,0.00,246.0,WeatherDisplay:10.37,2013-08-24 21:47:00,
2013-08-24 16:52:00,89.9,68.7,30.03,SSE,162,0.0,6.0,50,0.00,FEW,FEW,0.00,236.0,WeatherDisplay:10.37,2013-08-24 21:52:00,
2013-08-24 16:57:00,89.7,69.7,30.03,East,101,2.0,9.0,52,0.00,FEW,FEW,0.00,193.0,WeatherDisplay:10.37,2013-08-24 21:57:00,
2013-08-24 17:02:00,89.5,69.5,30.03,ESE,113,0.0,6.0,52,0.00,FEW,FEW,0.00,163.0,WeatherDisplay:10.37,2013-08-24 22:02:00,
2013-08-24 17:07:00,89.0,69.7,30.03,ESE,116,0.0,6.0,53,0.00,FEW,FEW,0.00,153.0,WeatherDisplay:10.37,2013-08-24 22:07:00,
2013-08-24 17:12:00,88.9,69.0,30.03,SSE,155,1.0,6.0,52,0.00,FEW,FEW,0.00,149.0,WeatherDisplay:10.37,2013-08-24 22:12:00,
2013-08-24 17:17:00,88.4,69.1,30.02,SSE,167,0.0,1.0,53,0.00,FEW,FEW,0.00,149.0,WeatherDisplay:10.37,2013-08-24 22:17:00,
2013-08-24 17:22:00,88.3,69.5,30.02,South,172,0.0,6.0,54,0.00,FEW,FEW,0.00,148.0,WeatherDisplay:10.37,2013-08-24 22:22:00,
2013-08-24 17:27:00,88.2,69.5,30.02,South,169,0.0,0.0,54,0.00,FEW,,0.00,148.0,WeatherDisplay:10.37,2013-08-24 22:27:00,
2013-08-24 17:32:00,88.1,69.9,30.03,SSE,164,0.0,4.0,55,0.00,FEW,FEW,0.00,146.0,WeatherDisplay:10.37,2013-08-24 22:32:00,
2013-08-24 17:37:00,88.0,69.3,30.03,SSE,161,0.0,1.0,54,0.00,FEW,FEW,0.00,144.0,WeatherDisplay:10.37,2013-08-24 22:37:00,
2013-08-24 17:42:00,87.7,70.1,30.03,South,178,0.0,2.0,56,0.00,FEW,FEW,0.00,142.0,WeatherDisplay:10.37,2013-08-24 22:42:00,
2013-08-24 17:47:00,87.7,69.0,30.03,East,79,0.0,4.0,54,0.00,FEW,FEW,0.00,142.0,WeatherDisplay:10.37,2013-08-24 22:47:00,
2013-08-24 17:52:00,87.9,69.2,30.02,NE,38,0.0,3.0,54,0.00,FEW,FEW,0.00,142.0,WeatherDisplay:10.37,2013-08-24 22:52:00,
2013-08-24 17:57:00,87.8,70.1,30.02,SW,229,0.0,0.0,56,0.00,FEW,FEW,0.00,156.0,WeatherDisplay:10.37,2013-08-24 22:57:00,
2013-08-24 18:02:00,88.3,70.0,30.02,SW,225,0.0,3.0,55,0.00,FEW,FEW,0.00,165.0,WeatherDisplay:10.37,2013-08-24 23:02:00,
2013-08-24 18:07:00,88.7,69.4,30.02,SSW,194,0.0,7.0,53,0.00,FEW,FEW,0.00,162.0,WeatherDisplay:10.37,2013-08-24 23:07:00,
2013-08-24 18:12:00,88.9,70.1,30.02,SE,139,0.0,1.0,54,0.00,FEW,FEW,0.00,156.0,WeatherDisplay:10.37,2013-08-24 23:12:00,
2013-08-24 18:17:00,88.9,70.1,30.02,SE,126,0.0,3.0,54,0.00,FEW,FEW,0.00,141.0,WeatherDisplay:10.37,2013-08-24 23:17:00,
2013-08-24 18:22:00,88.6,69.3,30.02,South,169,0.0,1.2,53,0.00,FEW,,0.00,127.0,WeatherDisplay:10.37,2013-08-24 23:22:00,
2013-08-24 18:27:00,88.4,70.1,30.02,ENE,70,0.0,3.0,55,0.00,FEW,FEW,0.00,125.0,WeatherDisplay:10.37,2013-08-24 23:27:00,
2013-08-24 18:32:00,88.3,70.1,30.03,NNE,31,0.0,1.0,55,0.00,FEW,FEW,0.00,109.0,WeatherDisplay:10.37,2013-08-24 23:32:00,
2013-08-24 18:37:00,88.0,70.9,30.03,ENE,62,0.0,3.0,57,0.00,FEW,FEW,0.00,97.0,WeatherDisplay:10.37,2013-08-24 23:37:00,
2013-08-24 18:42:00,87.5,70.9,30.02,ESE,120,0.0,0.0,58,0.00,FEW,FEW,0.00,88.0,WeatherDisplay:10.37,2013-08-24 23:42:00,
2013-08-24 18:47:00,87.5,70.4,30.02,SE,124,0.0,2.0,57,0.00,FEW,FEW,0.00,84.0,WeatherDisplay:10.37,2013-08-24 23:47:00,
2013-08-24 18:52:00,87.5,70.4,30.02,SE,137,0.0,1.0,57,0.00,FEW,FEW,0.00,90.0,WeatherDisplay:10.37,2013-08-24 23:52:00,
2013-08-24 18:57:00,87.4,70.3,30.02,South,179,0.6,0.0,57,0.00,FEW,,0.00,90.0,WeatherDisplay:10.37,2013-08-24 23:57:00,
2013-08-24 19:02:00,87.4,69.3,30.02,SSE,166,0.0,1.0,55,0.00,FEW,FEW,0.00,86.0,WeatherDisplay:10.37,2013-08-25 00:02:00,
2013-08-24 19:07:00,87.4,69.3,30.02,SSW,202,0.0,2.0,55,0.00,FEW,FEW,0.00,83.0,WeatherDisplay:10.37,2013-08-25 00:07:00,
2013-08-24 19:12:00,87.1,70.0,30.02,ENE,71,1.0,4.0,57,0.00,FEW,FEW,0.00,76.0,WeatherDisplay:10.37,2013-08-25 00:12:00,
2013-08-24 19:17:00,87.0,69.9,30.02,South,190,0.0,0.0,57,0.00,FEW,,0.00,62.0,WeatherDisplay:10.37,2013-08-25 00:17:00,
2013-08-24 19:22:00,87.0,69.9,30.02,South,184,0.0,7.0,57,0.00,FEW,FEW,0.00,49.0,WeatherDisplay:10.37,2013-08-25 00:22:00,
2013-08-24 19:27:00,86.7,70.1,30.02,South,178,0.0,1.0,58,0.00,FEW,FEW,0.00,37.0,WeatherDisplay:10.37,2013-08-25 00:27:00,
2013-08-24 19:32:00,86.2,69.7,30.02,South,176,0.0,2.0,58,0.00,FEW,FEW,0.00,28.0,WeatherDisplay:10.37,2013-08-25 00:32:00,
2013-08-24 19:37:00,86.0,70.0,30.02,South,169,0.0,1.0,59,0.00,FEW,FEW,0.00,21.0,WeatherDisplay:10.37,2013-08-25 00:37:00,
2013-08-24 19:42:00,85.5,70.0,30.02,South,170,0.0,0.0,60,0.00,FEW,FEW,0.00,19.0,WeatherDisplay:10.37,2013-08-25 00:42:00,
2013-08-24 19:47:00,84.8,69.9,30.02,South,170,0.0,0.0,61,0.00,FEW,FEW,0.00,12.0,WeatherDisplay:10.37,2013-08-25 00:47:00,
2013-08-24 19:52:00,84.7,69.8,30.03,South,172,0.0,2.0,61,0.00,FEW,FEW,0.00,7.0,WeatherDisplay:10.37,2013-08-25 00:52:00,
2013-08-24 19:57:00,84.6,70.2,30.03,South,172,0.0,0.0,62,0.00,FEW,FEW,0.00,7.0,WeatherDisplay:10.37,2013-08-25 00:57:00,
2013-08-24 20:02:00,84.1,69.7,30.03,SSW,194,0.0,3.0,62,0.00,FEW,FEW,0.00,7.0,WeatherDisplay:10.37,2013-08-25 01:02:00,
2013-08-24 20:07:00,84.2,69.8,30.03,SSW,201,0.0,1.0,62,0.00,SCT,SCT,0.00,5.0,WeatherDisplay:10.37,2013-08-25 01:07:00,
2013-08-24 20:12:00,84.3,69.8,30.03,SW,215,0.0,0.0,62,0.00,SCT,SCT,0.00,0.0,WeatherDisplay:10.37,2013-08-25 01:12:00,
2013-08-24 20:17:00,83.9,69.9,30.03,SW,228,0.0,1.0,63,0.00,SCT,SCT,0.00,0.0,WeatherDisplay:10.37,2013-08-25 01:17:00,
2013-08-24 20:22:00,83.5,69.6,30.03,SW,217,0.0,4.0,63,0.00,SCT,SCT,0.00,0.0,WeatherDisplay:10.37,2013-08-25 01:22:00,
2013-08-24 20:27:00,83.2,70.2,30.03,SSE,155,0.0,0.0,65,0.00,SCT,,0.00,0.0,WeatherDisplay:10.37,2013-08-25 01:27:00,
2013-08-24 20:32:00,82.9,69.9,30.04,SE,134,0.0,1.0,65,0.00,SCT,SCT,0.00,0.0,WeatherDisplay:10.37,2013-08-25 01:32:00,
2013-08-24 20:37:00,83.0,70.0,30.04,South,177,0.0,5.0,65,0.00,SCT,SCT,0.00,0.0,WeatherDisplay:10.37,2013-08-25 01:37:00,
2013-08-24 20:42:00,82.7,70.2,30.04,SSW,209,0.0,0.0,66,0.00,SCT,SCT,0.00,0.0,WeatherDisplay:10.37,2013-08-25 01:42:00,
2013-08-24 20:47:00,82.2,69.8,30.04,SSW,209,0.0,0.0,66,0.00,SCT,SCT,0.00,0.0,WeatherDisplay:10.37,2013-08-25 01:47:00,
2013-08-24 20:52:00,81.8,69.8,30.04,SSW,209,0.0,0.0,67,0.00,SCT,SCT,0.00,0.0,WeatherDisplay:10.37,2013-08-25 01:52:00,
2013-08-24 20:57:00,81.6,69.6,30.05,SSW,209,0.0,0.0,67,0.00,SCT,SCT,0.00,0.0,WeatherDisplay:10.37,2013-08-25 01:57:00,
2013-08-24 21:02:00,81.7,69.7,30.05,SSW,208,0.0,2.0,67,0.00,SCT,SCT,0.00,0.0,WeatherDisplay:10.37,2013-08-25 02:02:00,
2013-08-24 21:07:00,81.4,69.8,30.05,SSW,202,0.1,1.2,68,0.00,SCT,,0.00,0.0,WeatherDisplay:10.37,2013-08-25 02:07:00,
2013-08-24 21:12:00,81.5,69.9,30.05,SSW,206,0.0,2.0,68,0.00,SCT,SCT,0.00,0.0,WeatherDisplay:10.37,2013-08-25 02:12:00,
2013-08-24 21:17:00,81.2,69.7,30.05,SW,228,0.0,0.0,68,0.00,SCT,SCT,0.00,0.0,WeatherDisplay:10.37,2013-08-25 02:17:00,
2013-08-24 21:22:00,81.2,69.6,30.05,SW,224,1.0,5.0,68,0.00,SCT,SCT,0.00,0.0,WeatherDisplay:10.37,2013-08-25 02:22:00,
2013-08-24 21:27:00,81.3,69.2,30.05,South,174,0.0,0.0,67,0.00,SCT,SCT,0.00,0.0,WeatherDisplay:10.37,2013-08-25 02:27:00,
2013-08-24 21:32:00,81.1,69.5,30.05,SSE,157,0.0,0.0,68,0.00,SCT,SCT,0.00,0.0,WeatherDisplay:10.37,2013-08-25 02:32:00,
2013-08-24 21:37:00,81.0,69.4,30.05,SSE,160,0.0,7.0,68,0.00,SCT,SCT,0.00,0.0,WeatherDisplay:10.37,2013-08-25 02:37:00,
2013-08-24 21:42:00,81.2,69.2,30.06,South,175,0.0,1.0,67,0.00,SCT,SCT,0.00,0.0,WeatherDisplay:10.37,2013-08-25 02:42:00,
2013-08-24 21:47:00,80.9,69.3,30.05,SSW,200,0.0,0.0,68,0.00,SCT,SCT,0.00,0.0,WeatherDisplay:10.37,2013-08-25 02:47:00,
2013-08-24 21:52:00,81.0,69.0,30.06,South,189,0.0,6.0,67,0.00,SCT,SCT,0.00,0.0,WeatherDisplay:10.37,2013-08-25 02:52:00,
2013-08-24 21:57:00,81.0,69.1,30.06,SSE,160,0.0,4.0,67,0.00,SCT,SCT,0.00,0.0,WeatherDisplay:10.37,2013-08-25 02:57:00,
2013-08-24 22:02:00,81.1,69.1,30.06,South,181,0.0,3.0,67,0.00,SCT,SCT,0.00,0.0,WeatherDisplay:10.37,2013-08-25 03:02:00,
2013-08-24 22:07:00,80.8,68.8,30.06,SSE,165,0.0,3.0,67,0.00,SCT,SCT,0.00,0.0,WeatherDisplay:10.37,2013-08-25 03:07:00,
2013-08-24 22:12:00,80.8,68.8,30.06,SE,142,0.0,5.0,67,0.00,SCT,SCT,0.00,0.0,WeatherDisplay:10.37,2013-08-25 03:12:00,
2013-08-24 22:17:00,80.7,68.7,30.06,SE,141,0.0,4.0,67,0.00,SCT,SCT,0.00,0.0,WeatherDisplay:10.37,2013-08-25 03:17:00,
2013-08-24 22:22:00,80.6,68.6,30.07,SE,141,1.0,4.0,67,0.00,SCT,SCT,0.00,0.0,WeatherDisplay:10.37,2013-08-25 03:22:00,
2013-08-24 22:27:00,80.7,68.7,30.07,East,91,0.0,2.0,67,0.00,SCT,SCT,0.00,0.0,WeatherDisplay:10.37,2013-08-25 03:27:00,
2013-08-24 22:32:00,80.5,68.5,30.07,South,172,0.0,6.0,67,0.00,SCT,SCT,0.00,0.0,WeatherDisplay:10.37,2013-08-25 03:32:00,
2013-08-24 22:37:00,80.5,68.5,30.07,SSE,167,0.0,4.0,67,0.00,SCT,SCT,0.00,0.0,WeatherDisplay:10.37,2013-08-25 03:37:00,
2013-08-24 22:42:00,80.2,68.7,30.07,SSE,157,0.0,2.0,68,0.00,SCT,SCT,0.00,0.0,WeatherDisplay:10.37,2013-08-25 03:42:00,
2013-08-24 22:47:00,80.2,68.7,30.07,SSE,161,0.0,2.0,68,0.00,SCT,SCT,0.00,0.0,WeatherDisplay:10.37,2013-08-25 03:47:00,
2013-08-24 22:52:00,80.1,68.6,30.07,ESE,116,0.0,1.0,68,0.00,SCT,,0.00,0.0,WeatherDisplay:10.37,2013-08-25 03:52:00,
2013-08-24 22:57:00,79.8,68.3,30.07,SE,136,0.0,2.0,68,0.00,SCT,SCT,0.00,0.0,WeatherDisplay:10.37,2013-08-25 03:57:00,
2013-08-24 23:01:00,79.9,68.4,30.07,South,171,0.0,0.0,68,0.00,SCT,,0.00,0.0,WeatherDisplay:10.37,2013-08-25 04:01:00,
2013-08-24 23:02:00,79.9,68.4,30.07,SSE,153,0.0,5.0,68,0.00,SCT,SCT,0.00,0.0,WeatherDisplay:10.37,2013-08-25 04:02:00,
2013-08-24 23:03:00,80.0,68.5,30.07,West,275,0.1,0.0,68,0.00,SCT,,0.00,0.0,WeatherDisplay:10.37,2013-08-25 04:03:00,
2013-08-24 23:08:00,79.6,68.5,30.07,South,177,0.0,0.0,69,0.00,SCT,,0.00,0.0,WeatherDisplay:10.37,2013-08-25 04:08:00,
2013-08-24 23:14:00,79.4,68.8,30.07,South,177,0.0,0.0,70,0.00,SCT,,0.00,0.0,WeatherDisplay:10.37,2013-08-25 04:14:00,
2013-08-24 23:19:00,79.1,68.5,30.07,South,174,0.0,0.0,70,0.00,SCT,,0.00,0.0,WeatherDisplay:10.37,2013-08-25 04:19:00,
2013-08-24 23:24:00,79.2,68.6,30.07,NW,317,0.2,1.2,70,0.00,SCT,,0.00,0.0,WeatherDisplay:10.37,2013-08-25 04:24:00,
2013-08-24 23:29:00,79.2,68.6,30.07,ESE,122,0.0,1.0,70,0.00,SCT,,0.00,0.0,WeatherDisplay:10.37,2013-08-25 04:29:00,
2013-08-24 23:35:00,79.2,68.6,30.07,SE,132,0.0,0.0,70,0.00,SCT,,0.00,0.0,WeatherDisplay:10.37,2013-08-25 04:35:00,
2013-08-24 23:40:00,79.0,68.4,30.07,SSE,167,0.0,0.0,70,0.00,SCT,,0.00,0.0,WeatherDisplay:10.37,2013-08-25 04:40:00,
2013-08-24 23:45:00,78.5,68.3,30.07,SSW,192,0.4,1.2,71,0.00,SCT,,0.00,0.0,WeatherDisplay:10.37,2013-08-25 04:45:00,
2013-08-24 23:51:00,78.3,68.5,30.07,SW,225,0.0,0.0,72,0.00,SCT,,0.00,0.0,WeatherDisplay:10.37,2013-08-25 04:51:00,
2013-08-24 23:56:00,78.3,68.5,30.07,South,173,0.1,1.2,72,0.00,SCT,,0.00,0.0,WeatherDisplay:10.37,2013-08-25 04:56:00,